This is the latest recevied weather packets stored in our database for station/object PY1LEO-13. If no packets are shown the sender has not sent any weather packets the latest 10 day(s).
| Time | Temp. | Humidity | Pressure | Rain* | Wind** | Luminosity | Snow |
|---|---|---|---|---|---|---|---|
| 1778092616 | 30° C | 54% | 1018 hPa | - | - | - | - |
| 1778092316 | 30.56° C | 52% | 1018 hPa | - | - | - | - |
| 1778092016 | 30° C | 53% | 1017.9 hPa | - | - | - | - |
| 1778091716 | 30.56° C | 51% | 1017.9 hPa | - | - | - | - |
| 1778091416 | 29.44° C | 53% | 1017.9 hPa | - | - | - | - |
| 1778091116 | 31.11° C | 50% | 1018 hPa | - | - | - | - |
| 1778090816 | 30° C | 52% | 1017.9 hPa | - | - | - | - |
| 1778090516 | 30° C | 53% | 1018 hPa | - | - | - | - |
| 1778090216 | 30° C | 53% | 1018 hPa | - | - | - | - |
| 1778089916 | 30.56° C | 54% | 1018.1 hPa | - | - | - | - |
| 1778089616 | 29.44° C | 55% | 1018.1 hPa | - | - | - | - |
| 1778089318 | 30° C | 54% | 1018.1 hPa | - | - | - | - |
| 1778089016 | 30.56° C | 53% | 1018.3 hPa | - | - | - | - |
| 1778088716 | 30° C | 55% | 1018.3 hPa | - | - | - | - |
| 1778088416 | 30.56° C | 54% | 1018.3 hPa | - | - | - | - |
| 1778088116 | 30.56° C | 53% | 1018.4 hPa | - | - | - | - |
| 1778087816 | 30° C | 55% | 1018.4 hPa | - | - | - | - |
| 1778087516 | 30° C | 55% | 1018.5 hPa | - | - | - | - |
| 1778087216 | 28.89° C | 58% | 1018.5 hPa | - | - | - | - |
| 1778086916 | 29.44° C | 57% | 1018.6 hPa | - | - | - | - |
| 1778086616 | 30° C | 55% | 1018.6 hPa | - | - | - | - |
| 1778086316 | 30° C | 55% | 1018.6 hPa | - | - | - | - |
| 1778086016 | 29.44° C | 57% | 1018.7 hPa | - | - | - | - |
| 1778085716 | 30.56° C | 54% | 1018.8 hPa | - | - | - | - |
| 1778085416 | 29.44° C | 56% | 1018.8 hPa | - | - | - | - |
* Rain since midnight (hover to see other rain measurements)
** Current wind speed in m/s (hover to see current wind gust speed)